Rbgn^[z[y[W
メイン
   新天体発見情報
     Comet C/2022 U2 (ATLAS)
投稿するにはまず登録を

スレッド表示 | 新しいものから 前のトピック | 次のトピック | 下へ
投稿者 スレッド
佐藤裕久
投稿日時: 2022-11-14 0:22
モデレータ
登録日: 2005-6-12
居住地: 日本
投稿: 2683
オンライン
Comet C/2022 U2 (ATLAS)

10月25日、ハワイ Mauna Loaにある小惑星地球衝突最終警報システム Asteroid Terrestrial-
impact Last Alert System (ATLAS)調査プログラムのコースに0.5-m f/2 Schmidt反射望遠鏡で
得たCCD画像から小惑星状天体が発見された。
佐藤英貴氏(東京都文京区,10月26.1日UT, 120-秒露出18枚のスタック, 0.43-m f/6.8 アスト
ログラフ, Mayhill近郊, ニューメキシコ州, 米国, 遠隔操作:強く集光した12"の外側のコマが
見えるが尾はなかった。7".6の円形範囲で測定した光度は18.9等であった)や吉本勝巳氏(山口
県熊毛郡平生町, 10月29.1日, 30-秒露出15枚のスタック, 0.43-m f/6.8 反射望遠鏡, Mayhill
近郊, 遠隔操作: 非常に拡散した48"のコマが見えた。全光度は17.4等で、尾はない)らCCD観測
者によって彗星状と観測された。

彗星機能の報告は次のとおり、

OC   Date        Reporter           Coma    Tail    PA          Exposures
H06  2022-10-29  K. Yoshimoto     48"                           15x30s
G00  2022-10-28  M. Jaeger       140"       20"     90           3x180s
204  2022-10-27  A. Aletti         7"                 
G00  2022-10-30  M. Jaeger       180"                           10x180s
G40  2022-10-30  N. Paul          11".6                         34x50s
215  2022-10-31  W. Hasubick      27"                           40x20s
G00  2022-11-02  M. Jaeger       180"                           16x180s

発見位置は次のとおり、

     2022 UT             R.A. (2000) Decl.       Mag.
     Oct. 25.21247   19 19 35.70   +69 24 26.8   19.1
          25.21675   19 19 35.41   +69 24 25.6   19.1
          25.22605   19 19 33.91   +69 24 20.8   19.1
          25.23995   19 19 31.74   +69 24 14.0   19.2

MPCの楕円軌道要素、位置推算表は次のとおり、

Orbital elements:
    C/2022 U2 (ATLAS)                                                           
Epoch 2022 Aug. 9.0 TT = JDT 2459800.5                                          
T 2023 Jan. 14.20790 TT                                 Rudenko                 
q   1.3273948            (2000.0)            P               Q                  
z  +0.0095813      Peri.  147.96558     -0.18805510     -0.76551066             
 +/-0.0003401      Node   304.43484     +0.66731689     +0.36009978             
e   0.9872819      Incl.   48.25026     +0.72064100     -0.53321814             
From 161 observations 2022 Oct. 25-Nov. 2, mean residual 0".5.                  
                                                                                
Ephemeris:
Date    TT    R. A. (2000) Decl.     Delta      r    Elong.  Phase   m1
2022 10 03    20 39 08.8 +70 49 47   1.4916  1.9789   103.4    29.5  19.8
...
2022 10 18    19 39 36.5 +70 10 42   1.3820  1.8346    99.7    32.4  19.3
...
2022 10 26    19 17 47.7 +69 18 58   1.3253  1.7609    97.8    34.0  19.1
...
2022 11 01    19 06 17.9 +68 38 07   1.2821  1.7076    96.5    35.3  18.9
2022 11 02    19 04 45.7 +68 31 36   1.2748  1.6989    96.3    35.5  18.8
2022 11 03    19 03 19.7 +68 25 14   1.2675  1.6903    96.1    35.7  18.8
...
2022 11 09    18 56 48.7 +67 51 15   1.2225  1.6397    95.0    37.0  18.6
...
2022 11 17    18 53 16.4 +67 22 19   1.1593  1.5762    94.1    38.7  18.3
...
2022 12 02    19 01 46.3 +67 47 03   1.0282  1.4715    93.8    42.0  17.7

(MPEC 2022-V66、CBET 5187)

スレッド表示 | 新しいものから 前のトピック | 次のトピック | トップ

投稿するにはまず登録を
 
© 1999 Tsutomu Seki.